International Telecommunication Union   ITU
عربي  |  中文  |  Español  |  Français  |  Русский
 
 Advanced Search Advanced Search Site map Contact us Print version
  Home : ITU-R : Space Services : SNL : Bringing into use
Radiocommunication Sector (ITU-R)  
Bringing into use of satellite network frequency assignments 
Bringing into use of satellite network frequency assignments

This table gives information about the date of bringing into use of planned and non-planned satellite network frequency assignments.

The notified frequency assignments appear in this list after their publication in Part I-S of the BR IFIC.

However, when frequency assignments have received unfavourable findings and are published in PART III-S, the dates of bringing into use are not displayed any longer in this list, even when these frequency assignments can be resubmitted later within the 6-month period set forth in RR No. 11.46.

The Bureau is also publishing bringing into use information submitted in conjunction with a submission under § 4.1.12/4.2.16 of Appendices 30 and 30A (Part B) or § 6.17 of Appendix 30B (A6B).

Please note that this table is for information only. The official confirmation of bringing into use is the publication in PART I-S and PART II-S of the BR  IFIC.

For more information about the procedure of bringing into use, please refer to the Circular letter CR/343. 

Meaning of the symbol in the column "Status":

  N : Not yet confirmed, the date in the column "Date of bringing into use" is the foreseen date
  I : Initial information on bringing into use
  C : Confirmed brought into use, No. 11.44B conditions fullfilled.

For any comments or information,  please contact us 

Last update of the database: 09.09.2019 - The update is done normally every 2 weeks.

Your query :  All networks
Query the database  - Print version  - Explanations  - Export in txt format  - Export in Excel format 

Total line = 2200/2726
Go to page : 1234567891011121314
Notice ID
(SNS)
Satellite Name
(SNL Part B)
ADMORGLong_nomDate of bringing
into use
StatusExpiry Date for
Bringing Into Use
Provision
up down up down up down  up down up down up down up down up down 
117500050 TUPAK KATARI-1  BOL  -87.2 29.03.2014 C  11.2  
114500052 SOCRATES  J   N-GSO 31.03.2014 C  11.2  
112560011 INTERSPUTNIK-74.9E-B  RUS IK  74.9 01.04.2014 C  5.1.6  
112560010 INTERSPUTNIK-74.9E-B  RUS IK  74.9 01.04.2014 C  5.1.2  
115500100 UKDSAT-A2  G   -33.5 02.04.2014 C  11.2  
111500003 SENTINEL-1  F  ESA N-GSO 03.04.2014 C  11.2  
114500074 QB50P  BEL  N-GSO 14.04.2014 C  11.2  
114500101 CANSAT-50  CAN  -107.3 15.04.2014 C  11.2  
114500102 CAN-BSS36  CAN  -107.3 16.04.2014 C  11.2  
113560001 RST-2A  RUS  56 22.04.2014 C  5.1.2  
113560002 RST-2A  RUS  56 22.04.2014 C  5.1.6  
112500064 EXPRESS-10KA  RUS  140 22.04.2014 C  11.2  
114570005 EXPRESS-10P  RUS  140 22.04.2014 C  A30B#8.1  
113570010 CSDRN-M  RUS  95 28.04.2014 C  A30B#8.1  
112500082 TDRS 167.5W  USA  -167.5 29.04.2014 C  11.2  
116500163 YAHSAT-63E  UAE  63 04.05.2014 C  11.2  
119500076 TURKSAT-31E-C  TUR  31 06.05.2014 C  11.2  
117500046 TURKSAT-31E-B  TUR  31 08.05.2014 C  11.2  
115500129 CAN-BSS31  CAN  -91 22.05.2014 C  11.2  
113500030 ALOS-2  J   N-GSO 24.05.2014 C  11.2  
105500223 DRTS-90.75E  J   90.75 24.05.2014 C  11.2  
318500271 B-SAT-2N  B   -84 01.06.2014 C  11.2  
115500161 YAHSAT-KA-47.5E  UAE  47.5 04.06.2014 C  11.2  
119500092 MADAR-47.5E  UAE  47.5 04.06.2014 C  11.2  
114560011 USABSS-26  USA  -110 08.06.2014 C  5.1.2/5.1.6  
114560009 RST-5  RUS  140 10.06.2014 C  5.1.2  
114560010 RST-5  RUS  140 10.06.2014 C  5.1.6  
90500256 STATSIONAR-20  RUS  70 12.06.2014 C  11.2  
114500196 TURKSAT-42E-B  TUR  42 13.06.2014 C  11.2  
116500168 QUETZSAT-77 TTC  MEX  -77 18.06.2014 C  11.2  
115500029 UNISAT-6  I   N-GSO 19.06.2014 C  11.2  
119500140 PACIFISAT KA-2 159E  PNG  159 20.06.2014 C  11.2  
114500027 HODOYOSHI-3-4  J   N-GSO 20.06.2014 C  11.2  
115500151 UKSAT-KU-4  G   -76 23.06.2014 C  11.2  
114570007 EUTELSAT EXB-7E  F  EUT 25.06.2014 C  A30B#8.1  
115500044 NSS-G2-18  HOL  95 29.06.2014 C  11.2  
118500184 SE-KA-63E  NOR  63 01.07.2014 C  11.2  
118500104 INMARSAT-KA 63E  G   63 01.07.2014 C  11.2  
111500081 OCO-2  USA  N-GSO 02.07.2014 C  11.2  
114560012 UKDIGISAT-4A  G   -33.5 08.07.2014 C  5.1.2  
114560015 EMARSAT-1  UAE  52.5 23.07.2014 C  5.1.6  
114560014 EMARSAT-1  UAE  52.5 23.07.2014 C  5.1.2  
114500146 F-SAT-N-E-8W  F   -8 28.07.2014 C  11.2  
114560013 EOE-BSS-2007  NOR  -0.8 31.07.2014 C  5.1.2  
114500011 DZZ-HR  KAZ  N-GSO 01.08.2014 C  11.2  
116500094 EMARSAT-7S  UAE  98.5 01.08.2014 C  11.2  
114560017 USAT-S3 MOD-D  G   -86.5 07.08.2014 C  5.1.2/5.1.6  
117500258 LUX-G6-51  LUX  -40.5 11.08.2014 C  11.2  
117500099 INSAT-TTC(82)E  IND  82 14.08.2014 C  11.2  
114500163 USGOVSAT-6R  USA  -52.5 14.08.2014 C  11.2  
116500087 LUX-G6-8  LUX  28.2 15.08.2014 C  11.2  
114500153 LUX-G6-9  LUX  31.5 15.08.2014 C  11.2  
114500150 LUX-G6-5  LUX  19.2 15.08.2014 C  11.2  
113500090 GC-2  CHN  N-GSO 19.08.2014 C  11.2  
314500139 NSS-83A  HOL  -67.5 21.08.2014 C  11.2  
119500157 UNIFORM-1  J   N-GSO 26.08.2014 C  11.2  
114500032 AALTO-1  FIN  N-GSO 01.09.2014 N 16.10.2020 11.2  
115560001 UKDIGISAT-4A  G   -33.5 08.09.2014 C  5.1.6  
115500229 ASIASAT-120V  CHN  120 15.09.2014 C  11.2  
114500095 MEASAT-1A  MLA  91.5 15.09.2014 C  11.2  
115570001 MEASAT-91.5E-30B  MLA  91.5 15.09.2014 C  A30B#8.1  
114560016 MEASAT-91.5E-BSS  MLA  91.5 15.09.2014 C  5.1.6  
118560006 MEASAT-91.5E-BSS  MLA  91.5 15.09.2014 C  5.1.2  
119560001 B-SAT-3Q  B   -61 21.09.2014 C  5.1.2/5.1.6  
116500167 DRN-P2B  F   21.5 25.09.2014 C  11.2  
113500147 DZZ-MR  KAZ  N-GSO 01.10.2014 C  11.2  
116500102 INSAT-KU11(55)E  IND  55 05.10.2014 C  11.2  
115500014 USGOVSAT-3R  USA  -135 14.10.2014 C  11.2  
117500079 HIMAWARI-140E  J   140.7 16.10.2014 C  11.2  
116500004 HIMAWARI-8-140E  J   140.7 16.10.2014 C  11.2  
115500028 TECHDEMOSAT-1  G   N-GSO 22.10.2014 C  11.2  
115500038 ATHENA-FIDUS-38E  F   38 22.10.2014 C  11.2  
115500012 PACIFISAT-9  PNG  116.1 25.10.2014 C  11.2  
116500036 PACIFISAT-1  PNG  75 30.10.2014 C  11.2  
117500244 INDOSTAR-110E-K  INS  108.2 01.11.2014 C  11.2  
115500119 SAUDISAT-5  ARS  N-GSO 03.11.2014 C  11.2  
115500120 SAUDISAT-6  ARS  N-GSO 03.11.2014 C  11.2  
113500156 TSUBAME  J   N-GSO 06.11.2014 C  11.2  
113500123 QSAT  J   N-GSO 06.11.2014 C  11.2  
112500154 ASNARO  J   N-GSO 06.11.2014 C  11.2  
114500095 MEASAT-1A  MLA  91.5 15.11.2014 C  11.2  
114500076 INMARSAT-XL1  G   25 20.11.2014 C  11.2  
113500214 USGAE-7M  USA  -68 23.11.2014 C  11.2  
112500191 USASAT-28N  USA  -116.15 25.11.2014 C  11.2  
97500304 GLONASS-M  RUS  N-GSO 01.12.2014 C  11.2  
118500003 GLORES  RUS  N-GSO 01.12.2014 C  11.2  
316500037 PACIFISAT KA-75E  PNG  75 01.12.2014 C  11.2  
116500120 ST-2A-CK  SNG  88 02.12.2014 C  11.2  
114500084 HAYABUSA2  J   N-GSO 03.12.2014 C  11.2  
112500236 EXPRESS-6KA  RUS  80 03.12.2014 C  11.2  
111500079 ISS-USOS-RPOD  USA  N-GSO 05.12.2014 C  11.2  
112500082 TDRS 167.5W  USA  -167.5 05.12.2014 C  11.2  
108501062 TDRS 89E  USA  89 05.12.2014 C  11.2  
112500199 ORION  USA  N-GSO 05.12.2014 C  11.2  
316500115 PACIFISAT-5  PNG  61 07.12.2014 C  11.2  
115570002 YAMAL-FSS-90E  RUS  90 15.12.2014 C  A30B#8.1  
113570005 YAMAL-PK4  RUS  90 15.12.2014 C  A30B#8.1  
117500173 LUX-G6-6  LUX  21.5 15.12.2014 C  11.2  
111500243 CSDRN-M  RUS  95 01.01.2015 C  11.2  
111500072 PAKSAT-1R1  PAK  38 01.01.2015 C  11.2  
112500228 VSSRD-2M  RUS  167 01.01.2015 C  11.2  
111500244 WSDRN-M  RUS  -16 01.01.2015 C  11.2  
104500284 AUSSAT C 156E FSS  AUS  156 04.01.2015 C  11.2  
111500304 AUSSAT D 160E FSS  AUS  160 04.01.2015 C  11.2  
115500060 FYGEOSAT-99.5E  CHN  99.5 06.01.2015 C  11.2  
117500174 LUX-G7-6  LUX  21.5 06.01.2015 C  11.2  
117500110 ESAT-5  G   33 24.01.2015 C  11.2  
112500032 SMAP  USA  N-GSO 31.01.2015 C  11.2  
115560007 PACIFISAT BSSA-61E  PNG  61 03.02.2015 C  5.1.2  
115560008 PACIFISAT BSS-61E  PNG  61 04.02.2015 C  5.1.2  
115500028 TECHDEMOSAT-1  G   N-GSO 11.02.2015 C  11.2  
115560009 AFRISAT BSS-3W  PNG  -3 25.02.2015 C  5.1.2  
115570005 LUX-30B-G4-23.5E  LUX  23.5 25.02.2015 C  A30B#8.1  
113500044 ARABSAT 7F-44.5E  ARS ARB 44.5 27.02.2015 C  11.2  
110500294 MMS  USA  N-GSO 12.03.2015 C  11.2  
115500069 USABSN-13A  USA  -99 18.03.2015 C  11.2  
317500351 GALILEO-2  F  GLS N-GSO 27.03.2015 C  11.2  
118500260 APSTAR-76E-R  CHN  76.5 07.04.2015 C  11.2  
118500016 APSTAR-142E-R  CHN  142 07.04.2015 C  11.2  
115570007 YAMAL-FSS-55E  RUS  55 19.04.2015 C  A30B#8.1  
117500295 NIGCOMSAT-1R  NIG  42.5 19.04.2015 C  11.2  
112500235 EXPRESS-5KA  RUS  53 22.04.2015 C  11.2  
114570006 EXPRESS-5P  RUS  53 22.04.2015 C  A30B#8.1  
106500059 EXPRESS-4B  RUS  40 24.04.2015 C  11.2  
115570006 EXPRESS-4P  RUS  40 24.04.2015 C  A30B#8.1  
115500070 YAHSAT-N-20W  UAE  -20 27.04.2015 C  11.2  
114500097 HISPASAT 2A 36W  E   -36 05.05.2015 C  11.2  
119500155 YAMAL-183E  RUS  -177 25.05.2015 C  11.2  
116500320 PACIFISAT C/KU-2  PNG  159 26.05.2015 C  11.2  
113500184 TDRS 12W-R  USA  -12 01.06.2015 C  11.2  
115500007 VENTA-1  LVA  N-GSO 01.06.2015 N 19.10.2019 11.2  
118570006 MCO-FSS-52EA  MCO  52 01.06.2015 C  A30B#8.1  
117500161 FYGEOSAT-86.5E  CHN  86.5 03.06.2015 C  11.2  
115500214 P-197-7  USA  92 07.06.2015 C  11.2  
117500163 FYGEOSAT-123.5E  CHN  123.5 12.06.2015 C  11.2  
115500194 HAYABUSA2SN  J   N-GSO 18.06.2015 C  11.2  
111500004 SENTINEL-2  F  ESA N-GSO 23.06.2015 C  11.2  
113500041 KOMPSAT-3A  KOR  N-GSO 26.06.2015 C  11.2  
117500326 NSS-G2-16  HOL  50.5 28.06.2015 C  11.2  
117500013 NSS-G2-17  HOL  57 28.06.2015 C  11.2  
115500044 NSS-G2-18  HOL  95 28.06.2015 C  11.2  
115500157 NSS-G2-1  HOL  -177 28.06.2015 C  11.2  
117500072 CANSAT(107.3W)-XKA  CAN  -107.3 28.06.2015 C  11.2  
117500270 BIFROST-0.8W-2010-KA  NOR  -0.8 01.07.2015 C  11.2  
115500162 P92-7  USA  -30.4 01.07.2015 C  11.2  
117500108 BIFROST-0.8W-2010  NOR  -0.8 02.07.2015 C  11.2  
115500089 F-SAT-B1-E-3E  F   03.07.2015 C  11.2  
115570008 SIRIUS-30B-5E-4  S   10.07.2015 C  A30B#8.1  
115570009 LUX-30B-G4-19.2E  LUX  19.2 14.07.2015 C  A30B#8.1  
117500353 NSS-BSS 95E TTC  HOL  95 16.07.2015 C  11.2  
115570010 LUX-30B-G4-28.2E  LUX  28.2 19.07.2015 C  A30B#8.1  
115560018 PACIFISAT BSS-116.1E  PNG  116.1 20.07.2015 C  5.1.2  
115560019 PACIFISAT BSS-116.1E  PNG  116.1 20.07.2015 C  5.1.6  
115570008 SIRIUS-30B-5E-4  S   22.07.2015 C  A30B#8.1  
318500261 COMPASS-MEO  CHN  N-GSO 25.07.2015 C  11.2  
117500127 INSAT-NAVR(83)  IND  83 26.07.2015 C  11.2  
117500065 NSS-G2-11  HOL  -22 28.07.2015 C  11.2  
115560020 INTERSPUTNIK-17E-B  RUS IK  17 30.07.2015 C  5.1.2  
115560021 INTERSPUTNIK-17E-B  RUS IK  17 30.07.2015 C  5.1.6  
118560013 DBL-G5-28.5E  LUX  28.5 01.08.2015 C  5.1.2  
118560021 DBL-G5-28.5E  LUX  28.5 01.08.2015 C  5.1.6  
115500208 FYGEOSAT-105E  CHN  105 01.08.2015 C  11.2  
114500155 MTG-D1_3.4W  D  EUM -3.4 02.08.2015 C  11.2  
117500031 YAMAL-55E  RUS  55 05.08.2015 C  11.2  
115500189 DMC3  G   N-GSO 10.08.2015 C  11.2  
114500126 P92-8  USA  92 11.08.2015 C  11.2  
118500183 SE-KA-55W  NOR  -55 14.08.2015 C  11.2  
114560007 BULSAT-BSS-1.2W-W  BUL  1.9 14.08.2015 N 04.11.2018 5.1.6  
117500167 PALAPA-C4-K  INS  150.5 15.08.2015 C  11.2  
118500190 GIBSAT-129W  G   -129 19.08.2015 C  11.2  
115500163 USPOJOAQUE  USA  N-GSO 20.08.2015 C  11.2  
115570013 TURKSAT-42E-FSS  TUR  42 20.08.2015 C  A30B#8.1  
115500106 USABSN-12A  USA  -103 25.08.2015 C  11.2  
115560022 AFRISAT BSS-3W  PNG  -3 28.08.2015 C  5.1.6  
117500076 DFH-4-OAF  CHN  155 15.09.2015 C  11.2  
109500036 LAPANSAT  INS  N-GSO 28.09.2015 C  11.2  
119500099 ASTROSAT  IND  N-GSO 28.09.2015 C  11.2  
315500213 IRIS-4A  USA  -15.5 30.09.2015 C  11.2  
114570004 MEXSAT 113 AP30B  MEX  -113 02.10.2015 C  A30B#8.1  
118500239 CANSAT(107.3W)-L  CAN  -107.3 10.10.2015 C  11.2  
114500156 MTG-D1_9.5E  D  EUM 9.5 15.10.2015 C  11.2  
117500066 ARABSAT 7C-20E  ARS ARB 20 20.10.2015 C  11.2  
118500054 ARABSAT 7A-30.5E  ARS ARB 30.5 20.10.2015 C  11.2  
116500100 NEW DAWN 22  PNG  62 30.10.2015 C  11.2  
116500040 USGAE-6M  USA  -120 01.11.2015 C  11.2  
116500044 USGAE-23M  USA  19 01.11.2015 C  11.2  
116500043 USGAE-12M  USA  111 01.11.2015 C  11.2  
116560009 INTERSPUTNIK-16W-B  RUS IK  -16 01.11.2015 C  5.1.2  
117500155 LUX-G6-2-E  LUX  05.11.2015 C  11.2  
116500054 AST-NG-NC-1  F   N-GSO 05.11.2015 C  11.2  
117500063 CHNSAT-103E  CHN  103 10.11.2015 C  11.2  
116500276 INTERSPUTNIK-16W-2  RUS IK  -16 13.11.2015 C  11.2  
316500330 INTERSPUTNIK-16W-4  RUS IK  -16 13.11.2015 C  11.2  
116570001 KAZSAT-30B-58.5E  KAZ  58.5 19.11.2015 C  A30B#8.1  
118500186 SE-KA-180E  NOR  180 22.11.2015 C  11.2  
116500183 ARABSAT 7B-26E  ARS ARB 26 22.11.2015 C  11.2  
118500270 CHINASAT-A5  CHN  87.5 23.11.2015 C  11.2  
117500041 AUS-NBN-3  AUS  140 24.11.2015 C  11.2  
118500050 LAOSAT-128.5E  LAO  128.5 26.11.2015 C  11.2  
Total line = 2200/2726
Go to page : 1234567891011121314

 

Top - Feedback - Contact us -  Copyright © ITU 2019 All Rights Reserved
Contact for this page : Webmaster
Updated : 2019-09-21